| time (UTC) | temp F | wind direction | speed MPH | gust MPH | rain 1hr in | rain 24hr in | rain mn in | humidity % | barometer mb |
| 20260509094557 | 52 | 0 | 0.0 | 0.0 | 0.00 | 0.00 | 0.00 | 88 | 1011.5 |
| 20260509093044 | 52 | 0 | 0.0 | 0.0 | 0.00 | 0.00 | 0.00 | 90 | 1011.8 |
| 20260509091550 | 52 | 0 | 0.0 | 0.0 | 0.00 | 0.00 | 0.00 | 88 | 1012.0 |
| 20260509090055 | 52 | 0 | 0.0 | 0.0 | 0.00 | 0.00 | 0.00 | 89 | 1011.4 |
| 20260509084559 | 52 | 0 | 0.0 | 0.0 | 0.00 | 0.00 | 0.00 | 87 | 1011.6 |
| 20260509083059 | 52 | 0 | 0.0 | 0.0 | 0.00 | 0.00 | 0.00 | 86 | 1011.3 |
| 20260509081545 | 52 | 0 | 0.0 | 2.0 | 0.00 | 0.00 | 0.00 | 86 | 1011.3 |
| 20260509080051 | 52 | 0 | 0.0 | 4.0 | 0.00 | 0.00 | 0.00 | 86 | 1011.2 |
| 20260509074606 | 52 | 134 | 1.0 | 3.0 | 0.00 | 0.00 | 0.00 | 86 | 1011.2 |
| 20260509073105 | 52 | 134 | 0.0 | 3.0 | 0.00 | 0.00 | 0.00 | 86 | 1011.3 |
| 20260509071557 | 52 | 0 | 0.0 | 4.0 | 0.00 | 0.00 | 0.00 | 85 | 1011.7 |
| 20260509070048 | 53 | 0 | 0.0 | 2.0 | 0.00 | 0.00 | 0.00 | 83 | 1011.6 |
| 20260509064550 | 54 | 0 | 0.0 | 2.0 | 0.00 | 0.00 | 0.00 | 82 | 1011.6 |
| 20260509063056 | 54 | 0 | 1.0 | 3.0 | 0.00 | 0.00 | 0.00 | 81 | 1011.6 |
| 20260509061548 | 55 | 0 | 0.0 | 4.0 | 0.00 | 0.00 | 0.00 | 80 | 1011.8 |
| 20260509060104 | 55 | 0 | 0.0 | 5.0 | 0.00 | 0.00 | 0.00 | 78 | 1012.1 |
| 20260509054545 | 56 | 0 | 0.0 | 5.0 | 0.00 | 0.00 | 0.00 | 78 | 1012.3 |
| 20260509053054 | 56 | 138 | 1.0 | 5.0 | 0.00 | 0.00 | 0.00 | 77 | 1012.3 |
| 20260509051547 | 56 | 150 | 2.0 | 5.0 | 0.00 | 0.00 | 0.00 | 76 | 1012.3 |
| 20260509050054 | 56 | 138 | 3.0 | 7.0 | 0.00 | 0.00 | 0.00 | 76 | 1012.3 |
| 20260509044547 | 56 | 138 | 2.0 | 7.0 | 0.00 | 0.00 | 0.00 | 74 | 1012.3 |
| 20260509043055 | 57 | 140 | 2.0 | 4.0 | 0.00 | 0.00 | 0.00 | 73 | 1012.4 |
| 20260509041547 | 57 | 135 | 2.0 | 7.0 | 0.00 | 0.00 | 0.00 | 72 | 1012.4 |
| 20260509040104 | 57 | 138 | 0.0 | 6.0 | 0.00 | 0.00 | 0.00 | 71 | 1012.7 |
| 20260509034547 | 58 | 0 | 0.0 | 4.0 | 0.00 | 0.00 | 0.00 | 69 | 1012.8 |
| 20260509033108 | 58 | 135 | 2.0 | 5.0 | 0.00 | 0.00 | 0.00 | 68 | 1012.8 |
| 20260509031553 | 59 | 138 | 1.0 | 3.0 | 0.00 | 0.00 | 0.00 | 66 | 1012.9 |
| 20260509030052 | 60 | 0 | 0.0 | 3.0 | 0.00 | 0.00 | 0.00 | 64 | 1012.8 |
| 20260509024556 | 60 | 136 | 1.0 | 3.0 | 0.00 | 0.00 | 0.00 | 64 | 1012.8 |
| 20260509023047 | 60 | 136 | 2.0 | 4.0 | 0.00 | 0.00 | 0.00 | 64 | 1012.9 |
| 20260509021550 | 61 | 140 | 2.0 | 7.0 | 0.00 | 0.00 | 0.00 | 62 | 1012.9 |
| 20260509020052 | 62 | 142 | 2.0 | 4.0 | 0.00 | 0.00 | 0.00 | 61 | 1012.8 |
| 20260509014550 | 62 | 150 | 2.0 | 4.0 | 0.00 | 0.00 | 0.00 | 60 | 1012.9 |
| 20260509013045 | 63 | 0 | 0.0 | 1.0 | 0.00 | 0.00 | 0.00 | 60 | 1012.7 |
| 20260509011551 | 63 | 0 | 0.0 | 0.0 | 0.00 | 0.00 | 0.00 | 58 | 1012.4 |
| 20260509010046 | 64 | 0 | 0.0 | 0.0 | 0.00 | 0.00 | 0.00 | 57 | 1012.5 |
| 20260509004543 | 65 | 0 | 0.0 | 1.0 | 0.00 | 0.00 | 0.00 | 56 | 1012.5 |
| 20260509003053 | 66 | 0 | 0.0 | 0.0 | 0.00 | 0.00 | 0.00 | 54 | 1012.6 |
| 20260509001542 | 67 | 0 | 0.0 | 2.0 | 0.00 | 0.00 | 0.00 | 53 | 1012.5 |
| 20260509000044 | 68 | 229 | 1.0 | 4.0 | 0.00 | 0.00 | 0.00 | 51 | 1012.7 |
| 20260508234545 | 69 | 0 | 0.0 | 0.0 | 0.00 | 0.00 | 0.00 | 50 | 1012.7 |
| 20260508233046 | 70 | 0 | 0.0 | 0.0 | 0.00 | 0.00 | 0.00 | 47 | 1012.8 |
| 20260508231553 | 70 | 0 | 1.0 | 4.0 | 0.00 | 0.00 | 0.00 | 46 | 1012.7 |
| 20260508230052 | 71 | 0 | 0.0 | 4.0 | 0.00 | 0.00 | 0.00 | 41 | 1012.5 |
| 20260508224553 | 71 | 0 | 1.0 | 4.0 | 0.00 | 0.00 | 0.00 | 47 | 1012.5 |
| 20260508223046 | 72 | 254 | 0.0 | 5.0 | 0.00 | 0.00 | 0.00 | 42 | 1012.5 |
| 20260508221545 | 72 | 255 | 2.0 | 6.0 | 0.00 | 0.00 | 0.00 | 41 | 1012.7 |
| 20260508220052 | 72 | 243 | 2.0 | 7.0 | 0.00 | 0.00 | 0.00 | 36 | 1012.9 |
| 20260508214548 | 72 | 126 | 2.0 | 6.0 | 0.00 | 0.00 | 0.00 | 39 | 1013.0 |
| 20260508213051 | 72 | 124 | 2.0 | 5.0 | 0.00 | 0.00 | 0.00 | 37 | 1012.9 |
| 20260508211548 | 72 | 143 | 2.0 | 6.0 | 0.00 | 0.00 | 0.00 | 38 | 1013.0 |
| 20260508210046 | 72 | 245 | 2.0 | 6.0 | 0.00 | 0.00 | 0.00 | 35 | 1013.1 |
| 20260508204547 | 72 | 252 | 1.0 | 7.0 | 0.00 | 0.00 | 0.00 | 34 | 1013.1 |
| 20260508203051 | 72 | 264 | 3.0 | 7.0 | 0.00 | 0.00 | 0.00 | 35 | 1013.2 |
| 20260508201547 | 71 | 147 | 2.0 | 7.0 | 0.00 | 0.00 | 0.00 | 38 | 1013.7 |
| 20260508200046 | 71 | 273 | 2.0 | 8.0 | 0.00 | 0.00 | 0.00 | 38 | 1013.7 |
| 20260508194600 | 71 | 134 | 1.0 | 7.0 | 0.00 | 0.00 | 0.00 | 38 | 1013.9 |
| 20260508193105 | 71 | 193 | 1.0 | 6.0 | 0.00 | 0.00 | 0.00 | 40 | 1014.2 |
| 20260508191550 | 70 | 63 | 1.0 | 7.0 | 0.00 | 0.00 | 0.00 | 41 | 1014.3 |
| 20260508190107 | 70 | 134 | 1.0 | 6.0 | 0.00 | 0.00 | 0.00 | 40 | 1015.0 |
| 20260508184543 | 69 | 148 | 3.0 | 7.0 | 0.00 | 0.00 | 0.00 | 44 | 1015.3 |
| 20260508183045 | 69 | 194 | 0.0 | 4.0 | 0.00 | 0.00 | 0.00 | 45 | 1015.5 |
| 20260508181552 | 68 | 144 | 2.0 | 5.0 | 0.00 | 0.00 | 0.00 | 44 | 1015.7 |
| 20260508180046 | 68 | 0 | 1.0 | 5.0 | 0.00 | 0.00 | 0.00 | 44 | 1016.0 |
| 20260508174548 | 67 | 134 | 2.0 | 8.0 | 0.00 | 0.00 | 0.00 | 43 | 1016.2 |
| 20260508173045 | 66 | 153 | 0.0 | 6.0 | 0.00 | 0.00 | 0.00 | 50 | 1016.2 |
| 20260508171549 | 66 | 133 | 2.0 | 7.0 | 0.00 | 0.00 | 0.00 | 46 | 1016.5 |
| 20260508170044 | 66 | 0 | 1.0 | 4.0 | 0.00 | 0.00 | 0.00 | 53 | 1016.8 |
| 20260508164544 | 64 | 271 | 2.0 | 9.0 | 0.00 | 0.00 | 0.00 | 42 | 1017.2 |
| 20260508163100 | 64 | 0 | 3.0 | 8.0 | 0.00 | 0.00 | 0.00 | 41 | 1017.4 |
| 20260508161554 | 63 | 130 | 1.0 | 7.0 | 0.00 | 0.00 | 0.00 | 47 | 1017.9 |
| 20260508160047 | 63 | 76 | 1.0 | 8.0 | 0.00 | 0.00 | 0.00 | 41 | 1018.1 |
| 20260508154547 | 62 | 107 | 2.0 | 9.0 | 0.00 | 0.01 | 0.00 | 49 | 1018.1 |
| 20260508153059 | 62 | 132 | 1.0 | 9.0 | 0.00 | 0.01 | 0.00 | 53 | 1018.2 |
| 20260508151548 | 62 | 155 | 1.0 | 7.0 | 0.00 | 0.01 | 0.00 | 52 | 1018.5 |
| 20260508150046 | 61 | 139 | 1.0 | 7.0 | 0.00 | 0.01 | 0.00 | 56 | 1018.5 |
| 20260508144547 | 60 | 0 | 0.0 | 5.0 | 0.00 | 0.01 | 0.00 | 56 | 1018.5 |
| 20260508143102 | 58 | 149 | 1.0 | 6.0 | 0.00 | 0.01 | 0.00 | 64 | 1018.5 |
| 20260508141541 | 57 | 0 | 0.0 | 3.0 | 0.00 | 0.01 | 0.00 | 69 | 1018.8 |
| 20260508140046 | 54 | 0 | 0.0 | 2.0 | 0.00 | 0.01 | 0.00 | 77 | 1018.8 |
| 20260508134545 | 52 | 0 | 0.0 | 2.0 | 0.00 | 0.01 | 0.00 | 82 | 1018.7 |
| 20260508133048 | 50 | 0 | 0.0 | 1.0 | 0.00 | 0.01 | 0.00 | 84 | 1018.6 |
| 20260508131547 | 49 | 0 | 0.0 | 3.0 | 0.00 | 0.01 | 0.00 | 87 | 1018.7 |
| 20260508130047 | 47 | 136 | 0.0 | 0.0 | 0.00 | 0.01 | 0.00 | 92 | 1018.5 |
| 20260508124543 | 46 | 0 | 0.0 | 0.0 | 0.00 | 0.01 | 0.00 | 96 | 1018.4 |
| 20260508123051 | 45 | 0 | 0.0 | 0.0 | 0.00 | 0.01 | 0.00 | 97 | 1018.4 |
| 20260508121551 | 43 | 0 | 0.0 | 0.0 | 0.00 | 0.01 | 0.00 | 97 | 1018.4 |
| 20260508120101 | 43 | 0 | 0.0 | 0.0 | 0.00 | 0.01 | 0.00 | 97 | 1018.3 |
| 20260508114547 | 42 | 0 | 0.0 | 0.0 | 0.00 | 0.01 | 0.00 | 97 | 1018.1 |
| 20260508113050 | 42 | 0 | 0.0 | 0.0 | 0.00 | 0.01 | 0.00 | 97 | 1017.9 |
| 20260508111546 | 42 | 0 | 0.0 | 0.0 | 0.00 | 0.01 | 0.00 | 97 | 1017.7 |
| 20260508104545 | 42 | 0 | 0.0 | 0.0 | 0.00 | 0.01 | 0.00 | 96 | 1017.3 |
| 20260508103049 | 42 | 0 | 0.0 | 0.0 | 0.00 | 0.01 | 0.00 | 94 | 1017.1 |
| 20260508101545 | 43 | 0 | 0.0 | 0.0 | 0.00 | 0.01 | 0.00 | 95 | 1016.9 |